Hourly Weather Roundup
Issued by NWS Central Illinois

Home | Current Version | Previous Version | Text Only | Print | Product List | Glossary On
Versions: 1 2 3 4 5 6 7 8 9 10 11 12 13 14 15 16 17 18 19 20 21 22 23 24 25 26 27 28 29 30 31 32 33 34 35 36 37 38 39 40 41 42 43 44 45 46 47 48 49 50
000
NZUS43 KILX 280110
HWRILX

AREA WEATHER ROUNDUP
NATIONAL WEATHER SERVICE, LINCOLN IL
800 PM CDT WED JUL 27 2016


CITY           SKY/WX    TMP DP  RH WIND       PRES   REMARKS
BLOOMINGTON    CLEAR     78  71  79 SE6       29.93S HX  80
CHAMPAIGN      PTCLDY    78  73  84 SE5       29.94S HX  81
DANVILLE       PTCLDY    75  74  96 CALM      29.92R
DECATUR        PTCLDY    81  74  79 SE6       29.92S HX  86
EFFINGHAM      PTCLDY    80  78  92 CALM      29.94R HX  88
FLORA          CLOUDY    83  77  82 CALM      29.92S HX  93
GALESBURG      CLEAR     78  73  82 CALM      29.91S HX  81
JACKSONVILLE   CLEAR     80  75  84 SE7       29.90R HX  86
LACON          CLEAR     80  71  74 CALM      29.91R HX  83
LAWRENCEVILLE  CLOUDY    80  76  87 S6        29.92S HX  86
LITCHFIELD       N/A    N/A N/A N/A MISG        N/A
$$


CITY           SKY/WX    TMP DP  RH WIND       PRES   REMARKS
LINCOLN        CLEAR     81  76  83 SE5       29.91S HX  87
MACOMB         MOCLDY    81  75  83 N3        29.94R HX  86
MATTOON        PTCLDY    81  73  76 CALM      29.93R HX  86
MT CARMEL AP   CLOUDY    79  73  81 SE3       29.92F HX  82
OLNEY-NOBLE AP MOCLDY    81  77  89 SE5       29.92F HX  88
PARIS          PTCLDY    78  76  92 CALM      29.94R HX  81
PEORIA         CLEAR     83  72  69 SE3       29.91R HX  88
PONTIAC        CLEAR     79  76  89 CALM      29.93R HX  83
RANTOUL        NOT AVBL
ROBINSON       MOCLDY    80  74  83 CALM      29.92F HX  84
SPRINGFIELD    CLEAR     81  73  76 SE7       29.90S HX  86
TAYLORVILLE    PTCLDY    79  75  88 MISG      29.92S HX  82
$$

...REGIONAL REPORTS...


CITY           SKY/WX    TMP DP  RH WIND       PRES   REMARKS
CHICAGO O`HARE CLOUDY    83  61  47 E10       29.91S HX  83
KANKAKEE       CLEAR     81  69  67 SE3       29.92S HX  83
MOLINE         PTCLDY    81  73  76 CALM      29.90S HX  86
MOUNT STERLING CLOUDY    80  76  87 E3        29.90R HX  86
MOUNT VERNON   CLOUDY    81  70  69 MISG      29.91F HX  84
PITTSFIELD     CLEAR     82  78  89 E3        29.91R HX  91
QUINCY         CLEAR     83  76  79 NE3       29.90R HX  91
ROCKFORD       MOCLDY    81  68  64 CALM      29.94R HX  84
$$


CITY           SKY/WX    TMP DP  RH WIND       PRES   REMARKS
BURLINGTON     CLEAR     80  75  84 CALM      29.90S HAZE    HX  85
CEDAR RAPIDS   MOCLDY    79  73  82 N5        29.92R HX  82
DES MOINES     PTCLDY    83  67  58 CALM      29.91R HX  85
KIRKSVILLE     CLEAR     84  71  65 W3        29.92S HX  89
OTTUMWA        PTCLDY    81  69  67 NE3       29.90R HX  84
ST LOUIS       MOCLDY    85  72  65 S5        29.91R HX  91
$$


CITY           SKY/WX    TMP DP  RH WIND       PRES   REMARKS
TERRE HAUTE    PTCLDY    81  72  74 CALM      29.93R HX  85
EVANSVILLE     TSTM      76  74  93 SE5       29.95R
INDIANAPOLIS   CLOUDY    83  64  52 N6        29.94S HX  84
LAFAYETTE      CLEAR     78  69  73 CALM      29.93S HX  80
MADISON        CLOUDY    79  68  69 NE3       29.94R HX  81
MILWAUKEE      MOCLDY    74  67  78 NE5       29.94S
$$





USA.gov is the U.S. government's official web portal to all federal, state and local government web resources and services.